DAL1419 KJFK-KFLL

Flight info

Callsign DAL1419
Flight time N/A
Altitude 32000
Route WAVEY EMJAY Q167 ZJAAY KALDA Q161 CHIEZ Y291 MAJIK CUUDA3
Aircraft B739/M-SDE2E3FGHIRWXY/LB1

Departure

Time N/A
Airport John F. Kennedy International Airport (KJFK)

Arrival

Time 2026-05-08 01:49
Airport Fort Lauderdale Hollywood International Airport (KFLL)
Time Latitude Longitude Altitude Speed Heading
2026-05-08 01:21 26.82422 -79.74303 30055 ft 449 kts 201°
2026-05-08 01:21 26.79450 -79.75246 29804 ft 438 kts 201°
2026-05-08 01:21 26.76560 -79.76156 29564 ft 429 kts 201°
2026-05-08 01:21 26.73706 -79.77056 28971 ft 428 kts 200°
2026-05-08 01:22 26.70804 -79.77973 28393 ft 426 kts 201°
2026-05-08 01:22 26.67980 -79.78916 27954 ft 420 kts 203°
2026-05-08 01:22 26.65268 -79.79958 27528 ft 414 kts 205°
2026-05-08 01:22 26.62575 -79.81070 26822 ft 415 kts 206°
2026-05-08 01:23 26.59858 -79.82222 25840 ft 419 kts 206°
2026-05-08 01:23 26.57117 -79.83387 24842 ft 422 kts 205°
2026-05-08 01:23 26.54372 -79.84555 23858 ft 424 kts 206°
2026-05-08 01:23 26.51666 -79.85777 22878 ft 425 kts 207°
2026-05-08 01:24 26.48925 -79.87077 21904 ft 425 kts 207°
2026-05-08 01:24 26.46214 -79.88383 20941 ft 426 kts 207°
2026-05-08 01:24 26.43518 -79.89683 19981 ft 425 kts 207°
2026-05-08 01:24 26.40832 -79.90974 19033 ft 425 kts 207°
2026-05-08 01:25 26.38107 -79.92307 18088 ft 423 kts 208°
2026-05-08 01:25 26.35511 -79.93783 17127 ft 420 kts 211°
2026-05-08 01:25 26.32991 -79.95383 16161 ft 417 kts 213°
2026-05-08 01:25 26.30518 -79.97027 15207 ft 415 kts 213°
2026-05-08 01:26 26.28064 -79.98671 14278 ft 412 kts 212°
2026-05-08 01:26 26.25618 -80.00299 13534 ft 403 kts 212°
2026-05-08 01:26 26.23231 -80.01870 12818 ft 395 kts 211°
2026-05-08 01:26 26.20914 -80.03408 12106 ft 388 kts 214°
2026-05-08 01:27 26.18806 -80.05250 11393 ft 379 kts 225°
2026-05-08 01:27 26.17257 -80.07545 10852 ft 365 kts 245°
2026-05-08 01:27 26.16351 -80.10068 10529 ft 349 kts 252°
2026-05-08 01:27 26.15632 -80.12585 10247 ft 334 kts 254°
2026-05-08 01:28 26.15078 -80.15043 10024 ft 319 kts 264°
2026-05-08 01:28 26.15010 -80.17424 9837 ft 303 kts 271°
2026-05-08 01:28 26.15039 -80.19724 9702 ft 287 kts 271°
2026-05-08 01:28 26.15051 -80.21875 9452 ft 278 kts 271°
2026-05-08 01:29 26.15057 -80.24041 8997 ft 278 kts 271°
2026-05-08 01:29 26.15061 -80.26174 8575 ft 276 kts 271°
2026-05-08 01:29 26.15067 -80.28284 8151 ft 275 kts 271°
2026-05-08 01:29 26.15075 -80.30437 7566 ft 279 kts 271°
2026-05-08 01:30 26.15084 -80.32586 6979 ft 283 kts 271°
2026-05-08 01:30 26.15093 -80.34800 6378 ft 286 kts 271°
2026-05-08 01:30 26.15082 -80.37000 5785 ft 289 kts 270°
2026-05-08 01:30 26.15033 -80.39222 5192 ft 290 kts 269°
2026-05-08 01:31 26.14972 -80.41485 4590 ft 292 kts 269°
2026-05-08 01:31 26.14902 -80.43736 4082 ft 289 kts 265°
2026-05-08 01:31 26.14367 -80.45825 3816 ft 278 kts 240°
2026-05-08 01:31 26.13113 -80.47361 3580 ft 267 kts 213°
2026-05-08 01:32 26.11408 -80.48036 3363 ft 256 kts 184°
2026-05-08 01:32 26.09691 -80.47792 3289 ft 242 kts 165°
2026-05-08 01:32 26.08107 -80.47257 3229 ft 236 kts 163°
2026-05-08 01:32 26.06539 -80.46634 3146 ft 239 kts 152°
2026-05-08 01:33 26.05321 -80.45422 3066 ft 240 kts 121°
2026-05-08 01:33 26.04835 -80.43662 3005 ft 239 kts 89°
2026-05-08 01:33 26.05244 -80.41892 3003 ft 239 kts 61°
2026-05-08 01:33 26.06130 -80.40323 2995 ft 240 kts 56°
2026-05-08 01:34 26.07055 -80.38781 2994 ft 239 kts 58°
2026-05-08 01:34 26.07710 -80.37104 2992 ft 240 kts 79°
2026-05-08 01:34 26.07851 -80.35271 2992 ft 229 kts 91°
2026-05-08 01:34 26.07809 -80.33548 2896 ft 220 kts 93°
2026-05-08 01:35 26.07777 -80.31864 2636 ft 220 kts 92°
2026-05-08 01:35 26.07766 -80.30160 2350 ft 218 kts 91°
2026-05-08 01:35 26.07762 -80.28493 2056 ft 213 kts 92°
2026-05-08 01:35 26.07756 -80.26868 1782 ft 208 kts 92°
2026-05-08 01:36 26.07747 -80.25285 1513 ft 200 kts 92°
2026-05-08 01:36 26.07740 -80.23797 1272 ft 184 kts 92°
2026-05-08 01:36 26.07736 -80.22448 1041 ft 168 kts 92°
2026-05-08 01:36 26.07728 -80.21202 816 ft 155 kts 93°
2026-05-08 01:37 26.07720 -80.20020 635 ft 153 kts 92°
2026-05-08 01:37 26.07713 -80.18838 446 ft 152 kts 92°
2026-05-08 01:37 26.07721 -80.17690 246 ft 149 kts 92°
2026-05-08 01:37 26.07697 -80.16567 57 ft 144 kts 93°
2026-05-08 01:38 26.07688 -80.15469 11 ft 154 kts 91°
2026-05-08 01:38 26.07680 -80.14299 683 ft 144 kts 94°
2026-05-08 01:38 26.07668 -80.13302 1119 ft 132 kts 92°
2026-05-08 01:38 26.07698 -80.12170 959 ft 157 kts 79°
2026-05-08 01:39 26.08330 -80.11188 1055 ft 165 kts 35°
2026-05-08 01:39 26.09410 -80.10626 1071 ft 178 kts 24°
2026-05-08 01:39 26.10588 -80.10058 1182 ft 187 kts 25°
2026-05-08 01:39 26.11792 -80.09460 1427 ft 195 kts 25°
2026-05-08 01:40 26.13097 -80.08803 1761 ft 210 kts 25°
2026-05-08 01:40 26.14456 -80.08121 2239 ft 223 kts 23°
2026-05-08 01:40 26.15987 -80.07799 2719 ft 226 kts 354°
2026-05-08 01:40 26.17452 -80.08389 2991 ft 225 kts 322°
2026-05-08 01:41 26.18398 -80.09725 3001 ft 222 kts 289°
2026-05-08 01:41 26.18668 -80.11421 3002 ft 221 kts 273°
2026-05-08 01:41 26.18754 -80.13111 2999 ft 220 kts 272°
2026-05-08 01:41 26.18839 -80.14829 2998 ft 220 kts 272°
2026-05-08 01:42 26.18927 -80.16519 2997 ft 221 kts 272°
2026-05-08 01:42 26.19014 -80.18215 2996 ft 221 kts 272°
2026-05-08 01:42 26.19102 -80.19932 2997 ft 222 kts 272°
2026-05-08 01:42 26.19190 -80.21655 2998 ft 222 kts 272°
2026-05-08 01:43 26.19272 -80.23373 2998 ft 222 kts 272°
2026-05-08 01:43 26.19305 -80.25086 2997 ft 221 kts 270°
2026-05-08 01:43 26.19307 -80.26783 2995 ft 221 kts 270°
2026-05-08 01:43 26.19303 -80.28499 2994 ft 220 kts 269°
2026-05-08 01:44 26.19302 -80.30183 2995 ft 221 kts 270°
2026-05-08 01:44 26.19244 -80.31877 2990 ft 211 kts 258°
2026-05-08 01:44 26.18596 -80.33321 2858 ft 212 kts 225°
2026-05-08 01:44 26.17345 -80.34085 2665 ft 203 kts 190°
2026-05-08 01:45 26.15990 -80.33923 2435 ft 199 kts 160°
2026-05-08 01:45 26.14707 -80.33300 2080 ft 200 kts 156°
2026-05-08 01:45 26.13449 -80.32652 1810 ft 197 kts 157°
2026-05-08 01:45 26.12244 -80.32018 1778 ft 183 kts 156°
2026-05-08 01:46 26.11173 -80.31263 1794 ft 185 kts 142°
2026-05-08 01:46 26.10197 -80.30299 1796 ft 187 kts 140°
2026-05-08 01:46 26.09236 -80.29324 1797 ft 185 kts 140°
2026-05-08 01:46 26.08293 -80.28375 1799 ft 185 kts 139°
2026-05-08 01:47 26.07439 -80.27293 1795 ft 189 kts 118°
2026-05-08 01:47 26.07234 -80.25836 1626 ft 196 kts 82°
2026-05-08 01:47 26.07517 -80.24362 1360 ft 190 kts 86°
2026-05-08 01:48 26.07624 -80.21684 902 ft 159 kts 91°
2026-05-08 01:48 26.07641 -80.20509 714 ft 153 kts 92°
2026-05-08 01:48 26.07667 -80.19315 521 ft 153 kts 89°
2026-05-08 01:48 26.07732 -80.18151 362 ft 150 kts 91°
2026-05-08 01:49 26.07709 -80.16984 146 ft 148 kts 94°
2026-05-08 01:49 26.07693 -80.15850 10 ft 140 kts 92°
2026-05-08 01:49 26.07685 -80.14981 9 ft 83 kts 90°
2026-05-08 01:49 26.07682 -80.14549 9 ft 24 kts 92°
2026-05-08 01:50 26.07634 -80.14415 9 ft 17 kts 121°
2026-05-08 01:50 26.07598 -80.14386 9 ft 4 kts 210°
2026-05-08 01:50 26.07563 -80.14435 9 ft 13 kts 256°
2026-05-08 01:50 26.07506 -80.14503 9 ft 13 kts 152°
2026-05-08 01:51 26.07486 -80.14410 9 ft 12 kts 90°
2026-05-08 01:51 26.07467 -80.14349 9 ft 7 kts 154°
2026-05-08 01:51 26.07417 -80.14343 9 ft 6 kts 180°
2026-05-08 01:51 26.07389 -80.14343 9 ft 2 kts 180°
2026-05-08 01:52 26.07386 -80.14343 9 ft 0 kts 180°